Weather History for Bainbridge, GA

Change the Weather History Date:

Wednesday, September 5, 2012

  Actual Average (KMAI) Record (KMAI)
Temperature  
Mean Temperature 80 °F 80 °F  
Max Temperature 86 °F 90 °F 97 °F (2010)
Min Temperature 73 °F 70 °F 64 °F (1997)
Degree Days  
Heating Degree Days 0    
Month to date heating degree days  
Since 1 July heating degree days  
Cooling Degree Days 14    
Month to date cooling degree days  
Year to date cooling degree days  
Growing Degree Days 30 (Base 50)    
Moisture  
Dew Point 74 °F    
Average Humidity 92    
Maximum Humidity 100    
Minimum Humidity 66    
Precipitation  
Precipitation 0.00 in 0.12 in 0.55 in (2011)
Month to date precipitation 0.65  
Year to date precipitation 38.98  
Sea Level Pressure  
Sea Level Pressure 29.93 in    
Wind  
Wind Speed 4 mph (SSE)    
Max Wind Speed 20 mph    
Max Gust Speed 26 mph    
Visibility 10 miles    
Events Rain    
T = Trace of Precipitation, MM = Missing Value Source: NWS Daily Summary

Daily Weather History Graph

Daily Weather History Graph

Search for Another Location

Airport:

Trip Planner

Search our weather history database for the weather conditions in past years. The results will help you decide how hot, cold, wet, or windy it might be!

Date:

Astronomy

Sep. 05, 2012 Rise Set
Actual Time 7:17 AM EDT 7:56 PM EDT
Civil Twilight 6:52 AM EDT 8:20 PM EDT
Nautical Twilight 6:24 AM EDT 8:49 PM EDT
Astronomical Twilight 5:54 AM EDT 9:18 PM EDT
Moon 10:51 PM EDT (9/5) 11:56 AM EDT (9/5)
Length of Visible Light 13h 27m
Length of Day
12h 38m
Waning Gibbous, 76% of the Moon is Illuminated
Sep 5
Waning Gibbous
Sep 8
Last Quarter
Sep 15
New
Sep 22
First Quarter
Sep 29
Full

Hourly Weather History & Observations

Time (EDT) Temp. Heat Index Dew Point Humidity Pressure Visibility Wind Dir Wind Speed Gust Speed Precip Events Conditions
12:15 AM 77.0 °F - 73.4 °F 89% 29.95 in 10.0 mi SSW 6.9 mph - N/A   Mostly Cloudy
12:35 AM 77.0 °F - 73.4 °F 89% 29.95 in 10.0 mi SSW 6.9 mph - N/A   Scattered Clouds
12:55 AM 75.2 °F - 73.4 °F 94% 29.94 in 10.0 mi Calm Calm - N/A   Scattered Clouds
1:15 AM 73.4 °F - 71.6 °F 94% 29.93 in 10.0 mi Calm Calm - N/A   Clear
1:35 AM 73.4 °F - 73.4 °F 100% 29.93 in 10.0 mi SSE 4.6 mph - N/A   Scattered Clouds
1:55 AM 73.4 °F - 73.4 °F 100% 29.92 in 10.0 mi SE 4.6 mph - N/A   Scattered Clouds
2:15 AM 73.4 °F - 73.4 °F 100% 29.90 in 10.0 mi SSE 3.5 mph - N/A   Clear
2:55 AM 73.4 °F - 73.4 °F 100% 29.91 in 10.0 mi ENE 4.6 mph - N/A   Clear
3:15 AM 73.4 °F - 73.4 °F 100% 29.91 in 10.0 mi SE 3.5 mph - N/A   Clear
3:35 AM 73.4 °F - 73.4 °F 100% 29.91 in 10.0 mi SE 3.5 mph - N/A   Scattered Clouds
3:55 AM 73.4 °F - 73.4 °F 100% 29.91 in 10.0 mi East 3.5 mph - N/A   Overcast
4:15 AM 73.4 °F - 73.4 °F 100% 29.90 in 7.0 mi ESE 3.5 mph - N/A   Mostly Cloudy
4:35 AM 73.4 °F - 73.4 °F 100% 29.90 in 10.0 mi Calm Calm - N/A   Mostly Cloudy
4:55 AM 73.4 °F - 73.4 °F 100% 29.90 in 10.0 mi Calm Calm - N/A   Scattered Clouds
5:15 AM 73.4 °F - 73.4 °F 100% 29.91 in 7.0 mi SE 3.5 mph - N/A   Mostly Cloudy
5:55 AM 77.0 °F - 75.2 °F 94% 29.91 in 10.0 mi South 4.6 mph - N/A   Scattered Clouds
6:15 AM 77.0 °F - 75.2 °F 94% 29.90 in 10.0 mi Calm Calm - N/A   Scattered Clouds
6:35 AM 77.0 °F - 75.2 °F 94% 29.90 in 10.0 mi SE 4.6 mph - N/A   Scattered Clouds
6:55 AM 73.4 °F - 73.4 °F 100% 29.90 in 7.0 mi SE 5.8 mph - N/A   Clear
7:15 AM 75.2 °F - 73.4 °F 94% 29.90 in 10.0 mi Calm Calm - N/A   Clear
7:35 AM 77.0 °F - 73.4 °F 89% 29.91 in 7.0 mi Calm Calm - N/A   Clear
7:55 AM 77.0 °F - 75.2 °F 94% 29.92 in 10.0 mi SSE 4.6 mph - N/A   Clear
8:15 AM 77.0 °F - 75.2 °F 94% 29.93 in 10.0 mi SSE 4.6 mph - N/A   Clear
8:35 AM 77.0 °F - 73.4 °F 89% 29.93 in 10.0 mi SSE 3.5 mph - N/A   Scattered Clouds
8:55 AM 77.0 °F - 73.4 °F 89% 29.93 in 10.0 mi Calm Calm - N/A   Mostly Cloudy
9:15 AM 77.0 °F - 73.4 °F 89% 29.93 in 10.0 mi SE 3.5 mph - N/A   Scattered Clouds
9:35 AM 77.0 °F - 73.4 °F 89% 29.94 in 10.0 mi SE 3.5 mph - N/A   Scattered Clouds
9:55 AM 77.0 °F - 73.4 °F 89% 29.94 in 10.0 mi SSE 3.5 mph - N/A   Scattered Clouds
10:15 AM 80.6 °F 85.4 °F 73.4 °F 79% 29.94 in 10.0 mi SE 5.8 mph - N/A   Clear
10:35 AM 80.6 °F 85.4 °F 73.4 °F 79% 29.95 in 10.0 mi SSE 4.6 mph - N/A   Clear
10:55 AM 82.4 °F 89.5 °F 75.2 °F 79% 29.95 in 10.0 mi SSE 5.8 mph - N/A   Clear
11:15 AM 82.4 °F 88.2 °F 73.4 °F 74% 29.94 in 10.0 mi SE 5.8 mph - N/A   Clear
11:35 AM 82.4 °F 89.5 °F 75.2 °F 79% 29.94 in 10.0 mi SE 3.5 mph - N/A   Scattered Clouds
11:55 AM 82.4 °F 88.2 °F 73.4 °F 74% 29.93 in 10.0 mi Calm Calm - N/A   Light Drizzle
12:15 PM 86.0 °F 93.4 °F 73.4 °F 66% 29.95 in 10.0 mi WSW 19.6 mph 26.5 mph N/A   Mostly Cloudy
12:35 PM 77.0 °F - 73.4 °F 89% 29.96 in 10.0 mi West 9.2 mph - N/A   Mostly Cloudy
12:55 PM 77.0 °F - 75.2 °F 94% 29.96 in 5.0 mi SSW 10.4 mph 16.1 mph N/A Rain Rain
1:15 PM 77.0 °F - 75.2 °F 94% 29.96 in 5.0 mi SSW 9.2 mph - N/A   Drizzle
1:35 PM 77.0 °F - 75.2 °F 94% 29.95 in 10.0 mi SSW 5.8 mph - N/A Rain Light Rain
1:55 PM 77.0 °F - 73.4 °F 89% 29.95 in 10.0 mi South 5.8 mph - N/A   Light Drizzle
2:15 PM 77.0 °F - 75.2 °F 94% 29.95 in 10.0 mi SSE 4.6 mph - N/A   Light Drizzle
2:35 PM 77.0 °F - 75.2 °F 94% 29.95 in 10.0 mi South 4.6 mph - N/A Rain Light Rain
2:55 PM 77.0 °F - 75.2 °F 94% 29.94 in 10.0 mi South 3.5 mph - N/A Rain Light Rain
3:15 PM 77.0 °F - 75.2 °F 94% 29.94 in 10.0 mi SE 4.6 mph - N/A Rain Light Rain
3:35 PM 77.0 °F - 73.4 °F 89% 29.93 in 10.0 mi SSE 3.5 mph - N/A Rain Light Rain
3:55 PM 78.8 °F - 75.2 °F 89% 29.93 in 10.0 mi SE 3.5 mph - N/A   Light Drizzle
4:15 PM 80.6 °F 87.1 °F 77.0 °F 89% 29.93 in 10.0 mi Calm Calm - N/A   Scattered Clouds
4:35 PM 80.6 °F 87.1 °F 77.0 °F 89% 29.93 in 10.0 mi Calm Calm - N/A   Mostly Cloudy
4:55 PM 80.6 °F 87.1 °F 77.0 °F 89% 29.92 in 10.0 mi Calm Calm - N/A   Mostly Cloudy
5:15 PM 80.6 °F 86.2 °F 75.2 °F 84% 29.92 in 10.0 mi ESE 3.5 mph - N/A   Mostly Cloudy
5:35 PM 80.6 °F 87.1 °F 77.0 °F 89% 29.92 in 10.0 mi ESE 3.5 mph - N/A   Mostly Cloudy
5:55 PM 80.6 °F 87.1 °F 77.0 °F 89% 29.91 in 10.0 mi SE 4.6 mph - N/A   Mostly Cloudy
6:15 PM 80.6 °F 87.1 °F 77.0 °F 89% 29.91 in 10.0 mi SE 3.5 mph - N/A   Scattered Clouds
6:35 PM 80.6 °F 87.1 °F 77.0 °F 89% 29.91 in 10.0 mi SE 4.6 mph - N/A   Scattered Clouds
6:55 PM 80.6 °F 87.1 °F 77.0 °F 89% 29.90 in 10.0 mi SE 5.8 mph - N/A   Clear
7:15 PM 80.6 °F 87.1 °F 77.0 °F 89% 29.90 in 10.0 mi SSE 4.6 mph - N/A   Clear
7:35 PM 78.8 °F - 75.2 °F 89% 29.90 in 10.0 mi SE 3.5 mph - N/A   Clear
7:55 PM 77.0 °F - 73.4 °F 89% 29.90 in 10.0 mi SSE 3.5 mph - N/A   Clear
8:15 PM 77.0 °F - 75.2 °F 94% 29.90 in 10.0 mi SE 5.8 mph - N/A   Clear
8:35 PM 77.0 °F - 75.2 °F 94% 29.91 in 10.0 mi SSE 4.6 mph - N/A   Clear
8:55 PM 77.0 °F - 75.2 °F 94% 29.91 in 10.0 mi SSE 4.6 mph - N/A   Clear
9:15 PM 77.0 °F - 75.2 °F 94% 29.92 in 10.0 mi South 4.6 mph - N/A   Clear
9:55 PM 77.0 °F - 75.2 °F 94% 29.93 in 10.0 mi SSE 3.5 mph - N/A   Clear
10:15 PM 75.2 °F - 73.4 °F 94% 29.93 in 10.0 mi SSE 4.6 mph - N/A   Clear
10:35 PM 73.4 °F - 73.4 °F 100% 29.93 in 10.0 mi South 4.6 mph - N/A   Clear
10:55 PM 73.4 °F - 73.4 °F 100% 29.94 in 10.0 mi Calm Calm - N/A   Clear
11:15 PM 73.4 °F - 73.4 °F 100% 29.94 in 10.0 mi Calm Calm - N/A   Clear
11:35 PM 73.4 °F - 73.4 °F 100% 29.94 in 7.0 mi Calm Calm - N/A   Clear
11:55 PM 73.4 °F - 73.4 °F 100% 29.95 in 7.0 mi Calm Calm - N/A   Clear